Flag for U.S.A. Weather past 2 weeks in Augusta, Maine, U.S.A.

Now
27 °F

Sunny.


Feels Like: 23 °F
Forecast: 28 / 48 °F
Wind: 3 mph from Northeast

Location: Augusta State Airport


UV Index: 0 (Low)

Visibility: 10 mi


Pressure: 30.62 "Hg

Humidity: 85%

Dew point: 23 °F

Location of AugustaLocation

Historic Weather in Augusta

°F

Augusta temperature yesterday

Maximum temperature yesterday: 44 °F (at 4:53 PM)
Minimum temperature yesterday: 20 °F (at 4:53 AM)
Average temperature yesterday: 31 °F

Past Weeks' High & Low Weather Summary

 TemperatureHumidityPressure
High68 °F (Apr 14, 2:53 PM)100% (Apr 5, 12:53 AM)30.86 "Hg (Apr 5, 12:53 AM)
Low20 °F (Apr 17, 4:53 AM)19% (Apr 11, 2:53 PM)29.27 "Hg (Apr 8, 4:04 PM)
Average42 °F62%30.00 "Hg
* Reported Apr 3 5:53 AM — Apr 18 5:53 AM, Augusta, Weather by CustomWeather, © 2014

Note: Actual official high and low records may vary slightly from our data, if they occured in-between our weather recording intervals... More about our weather records

Advertising

Historic Weather Conditions — Data for Previous 24 hours

 ConditionsComfort  
Time TempWeatherWind HumidityBarometerVisibility
5:53 AM
Apr 18
24 °FClear.No wind84%30.64 "Hg10 mi
4:53 AM25 °FClear.3 mph85%30.65 "Hg10 mi
3:53 AM26 °FClear.3 mph81%30.66 "Hg10 mi
2:53 AM27 °FClear.No wind78%30.67 "Hg10 mi
1:53 AM27 °FClear.No wind78%30.67 "Hg10 mi
12:53 AM29 °FClear.No wind72%30.68 "Hg10 mi
11:53 PM
Apr 17
30 °FClear.No wind69%30.71 "Hg10 mi
10:53 PM30 °FClear.No wind69%30.73 "Hg10 mi
9:53 PM30 °FClear.3 mph69%30.75 "Hg10 mi
8:53 PM32 °FClear.3 mph64%30.76 "Hg10 mi
7:53 PM34 °FSunny.6 mph59%30.76 "Hg10 mi
6:53 PM39 °FSunny.9 mph46%30.73 "Hg10 mi
5:53 PM44 °FSunny.3 mph26%30.74 "Hg10 mi
4:53 PM44 °FSunny.5 mph27%30.75 "Hg10 mi
3:53 PM42 °FSunny.3 mph28%30.76 "Hg10 mi
2:53 PM42 °FSunny.No wind29%30.77 "Hg10 mi
1:53 PM40 °FSunny.No wind29%30.79 "Hg10 mi
12:53 PM39 °FSunny.No wind31%30.81 "Hg10 mi
11:53 AM37 °FSunny.5 mph36%30.83 "Hg10 mi
10:53 AM34 °FSunny.N/A40%30.86 "Hg10 mi
9:53 AM32 °FSunny.7 mph45%30.86 "Hg10 mi
8:53 AM30 °FSunny.12 mph51%30.84 "Hg10 mi
7:53 AM26 °FSunny.7 mph63%30.83 "Hg10 mi
Weather by CustomWeather, © 2014

See weather overview